Flag for Austria Weather past 2 weeks in Amstetten, Lower Austria, Austria

Now
40 °F

Clear.


Feels Like: N/A
Forecast: 46 / 58 °F
Wind: N/A

Location: Linz / Hoersching-Flughafen

Current Time: Sep 24, 2014 at 5:23:37 AM

Latest Report: Sep 24, 2014 at 5:00 AM


Visibility: 8 mi

Pressure: 30.10 "Hg

Humidity: 96%

Dew point: 39 °F

Location of AmstettenLocation

Historic Weather in Amstetten — Graph

°F

Amstetten temperature yesterday

Maximum temperature yesterday: 58 °F (at 5:00 PM)
Minimum temperature yesterday: 44 °F (at 11:00 PM)
Average temperature yesterday: 51 °F

Past Weeks' High & Low Weather Summary

 TemperatureHumidityPressure
High75 °F (Sep 9, 4:00 PM)100% (Sep 20, 5:00 AM)30.17 "Hg (Sep 20, 5:00 AM)
Low40 °F (Sep 24, 4:00 AM)43% (Sep 17, 5:00 PM)29.87 "Hg (Sep 22, 1:00 AM)
Average60 °F82%29.99 "Hg
* Reported Sep 9 4:00 AM — Sep 24 4:00 AM, Amstetten, Weather by CustomWeather, © 2014

Note: Actual official high and low records may vary slightly from our data, if they occured in-between our weather recording intervals... More about our weather records

Advertising

Amstetten weather history for previous 24 hours

 ConditionsComfort  
Time TempWeatherWind HumidityBarometerVisibility
4:00 AM
Sep 24
40 °FClear.N/A96%30.11 "Hg6 mi
3:00 AM42 °FQuite cool.N/A96%30.13 "Hg8 mi
2:00 AM41 °FQuite cool.N/A94%30.14 "Hg7 mi
1:00 AM43 °FQuite cool.N/A93%30.14 "Hg8 mi
12:00 AM44 °FQuite cool.N/A94%30.15 "Hg7 mi
11:00 PM
Sep 23
44 °FClear.N/A95%30.15 "Hg10 mi
10:00 PM46 °FClear.N/A89%30.14 "Hg16 mi
9:00 PMN/APassing clouds.18 mphN/AN/A11 mi
8:00 PM50 °FClear.N/A80%30.12 "Hg28 mi
7:00 PMN/APassing clouds.8 mphN/AN/A17 mi
6:00 PM57 °FPassing clouds.6 mph54%30.11 "Hg25 mi
5:00 PM58 °FScattered clouds.6 mph56%30.12 "Hg28 mi
4:00 PM58 °FScattered clouds.8 mph55%30.13 "Hg18 mi
3:00 PM57 °FPartly sunny.9 mph60%30.15 "Hg22 mi
2:00 PM55 °FPartly sunny.9 mph64%30.17 "Hg22 mi
1:00 PM54 °FPartly sunny.8 mph69%30.16 "Hg19 mi
12:00 PM53 °FOvercast.9 mph75%30.17 "Hg14 mi
11:00 AM51 °FOvercast.9 mph80%30.17 "Hg9 mi
10:00 AM50 °FOvercast.9 mph82%30.16 "Hg12 mi
9:00 AM49 °FOvercast.9 mph83%30.14 "Hg9 mi
8:00 AM48 °FOvercast.8 mph85%30.11 "Hg8 mi
7:00 AM48 °FOvercast.9 mph86%30.09 "Hg6 mi
6:00 AM48 °FRain showers. Overcast.7 mph85%30.08 "Hg8 mi
5:00 AM48 °FOvercast.9 mph85%30.07 "Hg7 mi
Weather by CustomWeather, © 2014

See weather overviewHow to use our weather pages